Time,TemperatureF,DewpointF,PressureIn,WindDirection,WindDirectionDegrees,WindSpeedMPH,WindSpeedGustMPH,Humidity,HourlyPrecipIn,Conditions,Clouds,dailyrainin,SoftwareType,DateUTC
2013-01-29 00:03:00,29.1,27.9,29.75,NE,51,0.0,7.0,95,0.00,,---,0.00,VWS V14.00,2013-01-29 06:03:00,
2013-01-29 00:08:00,29.0,27.8,29.74,SE,130,0.0,4.0,95,0.00,,---,0.00,VWS V14.00,2013-01-29 06:08:00,
2013-01-29 00:13:00,29.0,27.5,29.73,ESE,117,0.0,4.0,94,0.00,,---,0.00,VWS V14.00,2013-01-29 06:13:00,
2013-01-29 00:18:00,29.0,27.5,29.73,NE,49,0.0,4.0,94,0.00,,---,0.00,VWS V14.00,2013-01-29 06:18:00,
2013-01-29 00:23:00,28.9,27.4,29.72,West,279,1.0,3.0,94,0.00,,---,0.00,VWS V14.00,2013-01-29 06:23:00,
2013-01-29 00:28:00,28.8,27.3,29.72,SSE,157,3.0,6.0,94,0.00,,---,0.00,VWS V14.00,2013-01-29 06:28:00,
2013-01-29 00:33:00,28.8,27.3,29.72,SSE,157,0.0,6.0,94,0.00,,---,0.00,VWS V14.00,2013-01-29 06:33:00,
2013-01-29 00:38:00,28.8,27.5,29.72,SE,139,0.0,4.0,95,0.00,,---,0.00,VWS V14.00,2013-01-29 06:38:00,
2013-01-29 00:43:00,28.8,27.5,29.71,SE,132,0.0,4.0,95,0.00,,---,0.00,VWS V14.00,2013-01-29 06:43:00,
2013-01-29 00:48:00,28.9,27.6,29.71,SSE,159,0.0,5.0,95,0.00,,---,0.00,VWS V14.00,2013-01-29 06:48:00,
2013-01-29 00:53:00,28.9,27.6,29.70,SW,220,1.0,3.0,95,0.00,,---,0.00,VWS V14.00,2013-01-29 06:53:00,
2013-01-29 00:58:00,28.9,27.6,29.69,SSE,159,0.0,5.0,95,0.00,,---,0.00,VWS V14.00,2013-01-29 06:58:00,
2013-01-29 01:03:00,28.9,27.6,29.70,SE,146,6.0,6.0,95,0.00,,---,0.00,VWS V14.00,2013-01-29 07:03:00,
2013-01-29 01:08:00,29.1,27.9,29.72,SSE,155,1.0,6.0,95,0.00,,---,0.00,VWS V14.00,2013-01-29 07:08:00,
2013-01-29 01:13:00,29.2,28.0,29.72,SE,136,4.0,6.0,95,0.00,,---,0.00,VWS V14.00,2013-01-29 07:13:00,
2013-01-29 01:18:00,29.2,28.0,29.72,WSW,242,2.0,9.0,95,0.00,,---,0.00,VWS V14.00,2013-01-29 07:18:00,
2013-01-29 01:23:00,29.3,28.0,29.72,SE,144,2.0,8.0,95,0.00,,---,0.00,VWS V14.00,2013-01-29 07:23:00,
2013-01-29 01:28:00,29.4,28.1,29.72,South,171,2.0,8.0,95,0.00,,---,0.00,VWS V14.00,2013-01-29 07:28:00,
2013-01-29 01:33:00,29.5,28.2,29.70,WNW,298,2.0,8.0,95,0.00,,---,0.00,VWS V14.00,2013-01-29 07:33:00,
2013-01-29 01:38:00,29.6,28.4,29.69,ESE,122,2.0,4.0,95,0.00,,---,0.00,VWS V14.00,2013-01-29 07:38:00,
2013-01-29 01:43:00,29.7,28.5,29.69,SSE,149,1.0,4.0,95,0.00,,---,0.00,VWS V14.00,2013-01-29 07:43:00,
2013-01-29 01:48:00,29.8,28.5,29.68,SSW,199,4.0,6.0,95,0.00,,---,0.00,VWS V14.00,2013-01-29 07:48:00,
2013-01-29 01:53:00,29.9,28.6,29.68,ESE,120,0.0,5.0,95,0.00,,---,0.00,VWS V14.00,2013-01-29 07:53:00,
2013-01-29 01:58:00,30.0,28.7,29.67,SE,142,3.0,5.0,95,0.00,,---,0.00,VWS V14.00,2013-01-29 07:58:00,
2013-01-29 02:03:00,30.1,28.8,29.68,ESE,115,0.0,5.0,95,0.00,,---,0.00,VWS V14.00,2013-01-29 08:03:00,
2013-01-29 02:08:00,30.2,28.9,29.68,SE,134,0.0,9.0,95,0.00,,---,0.00,VWS V14.00,2013-01-29 08:08:00,
2013-01-29 02:13:00,30.3,29.0,29.67,SSE,149,0.0,9.0,95,0.00,,---,0.00,VWS V14.00,2013-01-29 08:13:00,
2013-01-29 02:18:00,30.3,29.0,29.66,NNW,335,3.0,9.0,95,0.00,,---,0.00,VWS V14.00,2013-01-29 08:18:00,
2013-01-29 02:23:00,30.4,29.1,29.64,SE,134,0.0,7.0,95,0.00,,---,0.00,VWS V14.00,2013-01-29 08:23:00,
2013-01-29 02:28:00,30.4,29.1,29.65,NW,307,2.0,7.0,95,0.00,,---,0.00,VWS V14.00,2013-01-29 08:28:00,
2013-01-29 02:33:00,30.5,29.5,29.66,SSE,167,4.0,7.0,96,0.00,,---,0.00,VWS V14.00,2013-01-29 08:33:00,
2013-01-29 02:38:00,30.7,29.7,29.67,SE,141,0.0,6.0,96,0.00,,---,0.00,VWS V14.00,2013-01-29 08:38:00,
2013-01-29 02:43:00,30.8,29.8,29.66,SSE,165,0.0,6.0,96,0.00,,---,0.00,VWS V14.00,2013-01-29 08:43:00,
2013-01-29 02:48:00,31.0,30.0,29.66,SE,137,0.0,7.0,96,0.00,,---,0.00,VWS V14.00,2013-01-29 08:48:00,
2013-01-29 02:53:00,31.0,30.0,29.65,SSE,154,1.0,5.0,96,0.00,,---,0.00,VWS V14.00,2013-01-29 08:53:00,
2013-01-29 02:58:00,31.2,30.2,29.65,ESE,123,3.0,6.0,96,0.00,,---,0.00,VWS V14.00,2013-01-29 08:58:00,
2013-01-29 03:03:00,31.4,30.4,29.65,SE,146,1.0,7.0,96,0.00,,---,0.00,VWS V14.00,2013-01-29 09:03:00,
2013-01-29 03:08:00,31.5,30.5,29.64,ENE,65,3.0,10.0,96,0.00,,---,0.00,VWS V14.00,2013-01-29 09:08:00,
2013-01-29 03:13:00,31.6,30.6,29.63,ENE,75,2.0,10.0,96,0.00,,---,0.00,VWS V14.00,2013-01-29 09:13:00,
2013-01-29 03:18:00,31.7,30.7,29.62,SSE,150,0.0,10.0,96,0.00,,---,0.00,VWS V14.00,2013-01-29 09:18:00,
2013-01-29 03:23:00,31.8,30.8,29.61,East,90,0.0,5.0,96,0.00,,---,0.00,VWS V14.00,2013-01-29 09:23:00,
2013-01-29 03:28:00,31.9,30.9,29.61,West,280,0.0,5.0,96,0.00,,---,0.00,VWS V14.00,2013-01-29 09:28:00,
2013-01-29 03:33:00,32.0,31.0,29.60,SSW,213,1.0,5.0,96,0.00,,---,0.00,VWS V14.00,2013-01-29 09:33:00,
2013-01-29 03:38:00,32.1,31.4,29.59,West,280,0.0,4.0,97,0.00,,---,0.00,VWS V14.00,2013-01-29 09:38:00,
2013-01-29 03:43:00,32.1,31.4,29.59,SSW,211,3.0,4.0,97,0.00,,---,0.00,VWS V14.00,2013-01-29 09:43:00,
2013-01-29 03:48:00,32.2,31.5,29.60,SE,146,2.0,4.0,97,0.00,,---,0.00,VWS V14.00,2013-01-29 09:48:00,
2013-01-29 03:53:00,32.2,31.5,29.59,ESE,122,2.0,5.0,97,0.00,,---,0.00,VWS V14.00,2013-01-29 09:53:00,
2013-01-29 03:58:00,32.3,31.5,29.60,ESE,121,3.0,5.0,97,0.00,,---,0.00,VWS V14.00,2013-01-29 09:58:00,
2013-01-29 04:03:00,32.4,31.6,29.59,SE,140,0.0,5.0,97,0.00,,---,0.00,VWS V14.00,2013-01-29 10:03:00,
2013-01-29 04:08:00,32.5,31.7,29.60,SSE,154,0.0,6.0,97,0.00,,---,0.00,VWS V14.00,2013-01-29 10:08:00,
2013-01-29 04:13:00,32.5,31.7,29.60,SE,136,4.0,6.0,97,0.00,,---,0.00,VWS V14.00,2013-01-29 10:13:00,
2013-01-29 04:18:00,32.6,31.8,29.59,SE,126,0.0,6.0,97,0.00,,---,0.00,VWS V14.00,2013-01-29 10:18:00,
2013-01-29 04:23:00,32.6,31.8,29.58,SE,143,0.0,3.0,97,0.00,,---,0.00,VWS V14.00,2013-01-29 10:23:00,
2013-01-29 04:28:00,32.7,31.9,29.59,South,176,0.0,6.0,97,0.00,,---,0.00,VWS V14.00,2013-01-29 10:28:00,
2013-01-29 04:33:00,32.8,32.0,29.58,ESE,108,4.0,9.0,97,0.00,,---,0.00,VWS V14.00,2013-01-29 10:33:00,
2013-01-29 04:38:00,32.8,32.0,29.58,SSE,153,3.0,4.0,97,0.00,,---,0.00,VWS V14.00,2013-01-29 10:38:00,
2013-01-29 04:43:00,32.8,32.0,29.58,NNW,342,1.0,4.0,97,0.00,,---,0.00,VWS V14.00,2013-01-29 10:43:00,
2013-01-29 04:48:00,32.7,31.9,29.58,East,98,2.0,4.0,97,0.00,,---,0.00,VWS V14.00,2013-01-29 10:48:00,
2013-01-29 04:53:00,32.7,31.9,29.57,ESE,123,0.0,7.0,97,0.00,,---,0.00,VWS V14.00,2013-01-29 10:53:00,
2013-01-29 04:58:00,32.6,31.8,29.56,ENE,63,0.0,7.0,97,0.00,,---,0.00,VWS V14.00,2013-01-29 10:58:00,
2013-01-29 05:03:00,32.6,31.8,29.56,SSE,147,3.0,7.0,97,0.00,,---,0.00,VWS V14.00,2013-01-29 11:03:00,
2013-01-29 05:08:00,32.6,31.8,29.56,ESE,120,1.0,4.0,97,0.00,,---,0.00,VWS V14.00,2013-01-29 11:08:00,
2013-01-29 05:13:00,32.5,31.7,29.56,SE,137,0.0,4.0,97,0.00,,---,0.00,VWS V14.00,2013-01-29 11:13:00,
2013-01-29 05:18:00,32.5,31.7,29.56,NE,40,2.0,7.0,97,0.00,,---,0.00,VWS V14.00,2013-01-29 11:18:00,
2013-01-29 05:23:00,32.5,31.7,29.55,SE,146,0.0,2.0,97,0.00,,---,0.00,VWS V14.00,2013-01-29 11:23:00,
2013-01-29 05:28:00,32.5,31.7,29.56,South,169,3.0,9.0,97,0.00,,---,0.00,VWS V14.00,2013-01-29 11:28:00,
2013-01-29 05:33:00,32.6,31.8,29.56,SSE,159,3.0,9.0,97,0.00,,---,0.00,VWS V14.00,2013-01-29 11:33:00,
2013-01-29 05:38:00,32.6,31.8,29.55,ESE,108,0.0,4.0,97,0.00,,---,0.00,VWS V14.00,2013-01-29 11:38:00,
2013-01-29 05:43:00,32.6,31.8,29.55,SSE,152,0.0,4.0,97,0.00,,---,0.00,VWS V14.00,2013-01-29 11:43:00,
2013-01-29 05:48:00,32.6,31.8,29.54,SE,130,0.0,4.0,97,0.00,,---,0.00,VWS V14.00,2013-01-29 11:48:00,
2013-01-29 05:53:00,32.6,31.8,29.55,SE,131,0.0,5.0,97,0.00,,---,0.00,VWS V14.00,2013-01-29 11:53:00,
2013-01-29 05:58:00,32.6,31.8,29.53,North,5,1.0,5.0,97,0.00,,---,0.00,VWS V14.00,2013-01-29 11:58:00,
2013-01-29 06:03:00,32.6,31.8,29.54,ESE,111,0.0,5.0,97,0.00,,---,0.00,VWS V14.00,2013-01-29 12:03:00,
2013-01-29 06:08:00,32.7,31.9,29.54,ESE,111,0.0,3.0,97,0.00,,---,0.00,VWS V14.00,2013-01-29 12:08:00,
2013-01-29 06:13:00,32.7,31.9,29.53,SSE,159,1.0,3.0,97,0.00,,---,0.00,VWS V14.00,2013-01-29 12:13:00,
2013-01-29 06:18:00,32.7,31.9,29.53,SSE,158,2.0,3.0,97,0.00,,---,0.00,VWS V14.00,2013-01-29 12:18:00,
2013-01-29 06:23:00,32.7,31.9,29.53,SE,136,0.0,2.0,97,0.00,,---,0.00,VWS V14.00,2013-01-29 12:23:00,
2013-01-29 06:28:00,32.7,31.9,29.52,SE,133,0.0,4.0,97,0.00,,---,0.00,VWS V14.00,2013-01-29 12:28:00,
2013-01-29 06:34:00,32.8,32.0,29.52,SSE,151,0.0,1.0,97,0.00,,---,0.00,VWS V14.00,2013-01-29 12:34:00,
2013-01-29 06:39:00,32.8,32.0,29.52,SSE,149,0.0,2.0,97,0.00,,---,0.00,VWS V14.00,2013-01-29 12:39:00,
2013-01-29 06:44:00,32.8,32.0,29.52,SSE,149,0.0,2.0,97,0.00,,---,0.00,VWS V14.00,2013-01-29 12:44:00,
2013-01-29 06:49:00,32.8,32.0,29.51,South,180,1.0,1.0,97,0.00,,---,0.00,VWS V14.00,2013-01-29 12:49:00,
2013-01-29 06:54:00,32.8,32.0,29.51,WNW,292,0.0,1.0,97,0.00,,---,0.00,VWS V14.00,2013-01-29 12:54:00,
2013-01-29 06:59:00,32.8,32.0,29.51,SE,134,3.0,3.0,97,0.00,,---,0.00,VWS V14.00,2013-01-29 12:59:00,
2013-01-29 07:04:00,32.8,32.0,29.52,SSE,166,0.0,1.0,97,0.00,,---,0.00,VWS V14.00,2013-01-29 13:04:00,
2013-01-29 07:09:00,32.8,32.0,29.52,ESE,108,0.0,4.0,97,0.00,,---,0.00,VWS V14.00,2013-01-29 13:09:00,
2013-01-29 07:14:00,32.8,32.0,29.52,ESE,107,0.0,4.0,97,0.00,,---,0.00,VWS V14.00,2013-01-29 13:14:00,
2013-01-29 07:19:00,32.9,32.1,29.52,SSE,161,0.0,0.0,97,0.00,,---,0.00,VWS V14.00,2013-01-29 13:19:00,
2013-01-29 07:24:00,32.8,32.0,29.52,SSE,161,0.0,0.0,97,0.00,,---,0.00,VWS V14.00,2013-01-29 13:24:00,
2013-01-29 07:29:00,32.8,32.0,29.52,SSE,152,0.0,4.0,97,0.00,,---,0.00,VWS V14.00,2013-01-29 13:29:00,
2013-01-29 07:34:00,32.8,32.0,29.51,SSE,152,0.0,0.0,97,0.00,,---,0.00,VWS V14.00,2013-01-29 13:34:00,
2013-01-29 07:39:00,32.8,32.0,29.50,SSE,152,0.0,2.0,97,0.00,,---,0.00,VWS V14.00,2013-01-29 13:39:00,
2013-01-29 07:44:00,32.8,32.0,29.50,SE,129,2.0,4.0,97,0.00,,---,0.00,VWS V14.00,2013-01-29 13:44:00,
2013-01-29 07:49:00,32.9,32.1,29.51,SE,128,0.0,0.0,97,0.00,,---,0.00,VWS V14.00,2013-01-29 13:49:00,
2013-01-29 07:54:00,32.9,32.1,29.52,SE,141,0.0,3.0,97,0.00,,---,0.00,VWS V14.00,2013-01-29 13:54:00,
2013-01-29 07:58:00,32.9,32.1,29.52,SE,141,0.0,3.0,97,0.00,,---,0.00,VWS V14.00,2013-01-29 13:58:00,
2013-01-29 08:03:00,32.9,32.1,29.51,SSE,154,0.0,2.0,97,0.00,,---,0.00,VWS V14.00,2013-01-29 14:03:00,
2013-01-29 08:08:00,32.9,32.1,29.51,SSE,155,0.0,3.0,97,0.00,,---,0.00,VWS V14.00,2013-01-29 14:08:00,
2013-01-29 08:13:00,32.9,32.1,29.51,SSE,155,0.0,3.0,97,0.00,,---,0.00,VWS V14.00,2013-01-29 14:13:00,
2013-01-29 08:19:00,32.9,32.1,29.51,SSE,155,0.0,0.0,97,0.00,,---,0.00,VWS V14.00,2013-01-29 14:19:00,
2013-01-29 08:23:00,32.9,32.1,29.51,SSE,155,0.0,0.0,97,0.00,,---,0.00,VWS V14.00,2013-01-29 14:23:00,
2013-01-29 08:28:00,32.9,32.1,29.51,East,98,1.0,2.0,97,0.00,,---,0.00,VWS V14.00,2013-01-29 14:28:00,
2013-01-29 08:33:00,32.9,32.1,29.52,SSE,153,0.0,0.0,97,0.00,,---,0.00,VWS V14.00,2013-01-29 14:33:00,
2013-01-29 08:38:00,33.0,32.2,29.52,SSE,153,0.0,0.0,97,0.00,,---,0.00,VWS V14.00,2013-01-29 14:38:00,
2013-01-29 08:43:00,33.0,32.2,29.51,SE,138,0.0,3.0,97,0.00,,---,0.00,VWS V14.00,2013-01-29 14:43:00,
2013-01-29 08:48:00,33.0,32.2,29.51,SE,138,0.0,0.0,97,0.00,,---,0.00,VWS V14.00,2013-01-29 14:48:00,
2013-01-29 08:53:00,33.0,32.2,29.52,SE,138,0.0,3.0,97,0.00,,---,0.00,VWS V14.00,2013-01-29 14:53:00,
2013-01-29 08:58:00,33.0,32.2,29.52,SSE,153,0.0,3.0,97,0.00,,---,0.00,VWS V14.00,2013-01-29 14:58:00,
2013-01-29 09:03:00,33.0,32.2,29.52,SSE,153,0.0,0.0,97,0.00,,---,0.00,VWS V14.00,2013-01-29 15:03:00,
2013-01-29 09:08:00,33.0,32.2,29.51,SE,135,0.0,2.0,97,0.00,,---,0.00,VWS V14.00,2013-01-29 15:08:00,
2013-01-29 09:13:00,33.0,32.2,29.52,SE,135,0.0,2.0,97,0.00,,---,0.00,VWS V14.00,2013-01-29 15:13:00,
2013-01-29 09:18:00,33.1,32.3,29.52,SE,140,2.0,2.0,97,0.00,,---,0.00,VWS V14.00,2013-01-29 15:18:00,
2013-01-29 09:23:00,33.1,32.6,29.52,SSE,157,2.0,4.0,98,0.00,,---,0.00,VWS V14.00,2013-01-29 15:23:00,
2013-01-29 09:28:00,33.1,32.6,29.52,SSE,159,0.0,4.0,98,0.00,,---,0.00,VWS V14.00,2013-01-29 15:28:00,
2013-01-29 09:33:00,33.2,32.7,29.51,SSE,161,0.0,0.0,98,0.00,,---,0.00,VWS V14.00,2013-01-29 15:33:00,
2013-01-29 09:38:00,33.2,32.7,29.50,SSE,161,0.0,3.0,98,0.00,,---,0.00,VWS V14.00,2013-01-29 15:38:00,
2013-01-29 09:43:00,33.2,32.7,29.50,SSW,211,0.0,3.0,98,0.00,,---,0.00,VWS V14.00,2013-01-29 15:43:00,
2013-01-29 09:48:00,33.3,32.8,29.50,South,181,0.0,0.0,98,0.00,,---,0.00,VWS V14.00,2013-01-29 15:48:00,
2013-01-29 09:53:00,33.3,32.8,29.50,South,181,0.0,0.0,98,0.00,,---,0.00,VWS V14.00,2013-01-29 15:53:00,
2013-01-29 09:58:00,33.2,32.7,29.50,South,181,0.0,0.0,98,0.00,,---,0.00,VWS V14.00,2013-01-29 15:58:00,
2013-01-29 10:03:00,33.3,32.8,29.51,South,181,0.0,0.0,98,0.00,,---,0.00,VWS V14.00,2013-01-29 16:03:00,
2013-01-29 10:08:00,33.3,32.8,29.51,South,181,2.0,2.0,98,0.00,,---,0.00,VWS V14.00,2013-01-29 16:08:00,
2013-01-29 10:13:00,33.3,32.8,29.51,South,182,0.0,3.0,98,0.00,,---,0.00,VWS V14.00,2013-01-29 16:13:00,
2013-01-29 10:18:00,33.3,32.8,29.51,South,182,0.0,0.0,98,0.00,,---,0.00,VWS V14.00,2013-01-29 16:18:00,
2013-01-29 10:23:00,33.3,32.8,29.49,South,182,1.0,1.0,98,0.00,,---,0.00,VWS V14.00,2013-01-29 16:23:00,
2013-01-29 10:28:00,33.3,32.8,29.50,South,182,0.0,1.0,98,0.00,,---,0.00,VWS V14.00,2013-01-29 16:28:00,
2013-01-29 10:33:00,33.4,32.9,29.50,South,182,0.0,0.0,98,0.00,,---,0.00,VWS V14.00,2013-01-29 16:33:00,
2013-01-29 10:38:00,33.4,32.9,29.51,South,182,0.0,0.0,98,0.00,,---,0.00,VWS V14.00,2013-01-29 16:38:00,
2013-01-29 10:43:00,33.5,33.0,29.51,SSW,209,0.0,2.0,98,0.00,,---,0.00,VWS V14.00,2013-01-29 16:43:00,
2013-01-29 10:48:00,33.4,32.9,29.50,SSW,209,0.0,0.0,98,0.00,,---,0.00,VWS V14.00,2013-01-29 16:48:00,
2013-01-29 10:53:00,33.5,33.0,29.51,SSW,209,0.0,1.0,98,0.00,,---,0.00,VWS V14.00,2013-01-29 16:53:00,
2013-01-29 10:58:00,33.5,33.0,29.51,SSW,209,0.0,2.0,98,0.00,,---,0.00,VWS V14.00,2013-01-29 16:58:00,
2013-01-29 11:03:00,33.5,33.0,29.51,SSW,209,0.0,0.0,98,0.00,,---,0.00,VWS V14.00,2013-01-29 17:03:00,
2013-01-29 11:08:00,33.5,33.0,29.51,SSW,209,2.0,3.0,98,0.00,,---,0.00,VWS V14.00,2013-01-29 17:08:00,
2013-01-29 11:13:00,33.5,32.7,29.52,SSW,209,0.0,3.0,97,0.00,,---,0.00,VWS V14.00,2013-01-29 17:13:00,
2013-01-29 11:18:00,33.5,32.7,29.52,SSW,209,0.0,0.0,97,0.00,,---,0.00,VWS V14.00,2013-01-29 17:18:00,
2013-01-29 11:23:00,33.5,32.7,29.52,SSW,211,1.0,3.0,97,0.00,,---,0.00,VWS V14.00,2013-01-29 17:23:00,
2013-01-29 11:28:00,33.5,32.7,29.53,South,180,2.0,3.0,97,0.00,,---,0.00,VWS V14.00,2013-01-29 17:28:00,
2013-01-29 11:34:00,33.5,32.7,29.53,South,180,0.0,1.0,97,0.00,,---,0.00,VWS V14.00,2013-01-29 17:34:00,
2013-01-29 11:39:00,33.5,32.7,29.53,South,187,2.0,3.0,97,0.00,,---,0.00,VWS V14.00,2013-01-29 17:39:00,
2013-01-29 11:44:00,33.5,32.7,29.53,WSW,244,0.0,5.0,97,0.00,,---,0.00,VWS V14.00,2013-01-29 17:44:00,
2013-01-29 11:49:00,33.5,32.7,29.52,WSW,240,3.0,4.0,97,0.00,,---,0.00,VWS V14.00,2013-01-29 17:49:00,
2013-01-29 11:54:00,33.5,32.7,29.53,South,181,1.0,4.0,97,0.00,,---,0.00,VWS V14.00,2013-01-29 17:54:00,
2013-01-29 11:59:00,33.5,32.7,29.53,South,181,0.0,4.0,97,0.00,,---,0.00,VWS V14.00,2013-01-29 17:59:00,
2013-01-29 12:04:00,33.5,32.7,29.53,South,181,0.0,1.0,97,0.00,,---,0.00,VWS V14.00,2013-01-29 18:04:00,
2013-01-29 12:09:00,33.5,32.7,29.54,West,262,0.0,3.0,97,0.00,,---,0.00,VWS V14.00,2013-01-29 18:09:00,
2013-01-29 12:14:00,33.5,32.7,29.53,SW,224,0.0,5.0,97,0.00,,---,0.00,VWS V14.00,2013-01-29 18:14:00,
2013-01-29 12:19:00,33.5,33.0,29.54,SW,236,2.0,4.0,98,0.00,,---,0.00,VWS V14.00,2013-01-29 18:19:00,
2013-01-29 12:24:00,33.5,33.0,29.55,SSW,206,3.0,6.0,98,0.00,,---,0.00,VWS V14.00,2013-01-29 18:24:00,
2013-01-29 12:29:00,33.5,33.0,29.54,WSW,238,0.0,6.0,98,0.00,,---,0.00,VWS V14.00,2013-01-29 18:29:00,
2013-01-29 12:34:00,33.5,33.0,29.54,WSW,237,0.0,0.0,98,0.00,,---,0.00,VWS V14.00,2013-01-29 18:34:00,
2013-01-29 12:39:00,33.5,33.0,29.54,WNW,287,3.0,5.0,98,0.00,,---,0.00,VWS V14.00,2013-01-29 18:39:00,
2013-01-29 12:44:00,33.5,32.7,29.55,SW,235,3.0,10.0,97,0.00,,---,0.00,VWS V14.00,2013-01-29 18:44:00,
2013-01-29 12:49:00,33.3,32.5,29.54,West,281,1.0,3.0,97,0.00,,---,0.00,VWS V14.00,2013-01-29 18:49:00,
2013-01-29 12:54:00,33.1,32.3,29.55,WNW,291,2.0,9.0,97,0.00,,---,0.00,VWS V14.00,2013-01-29 18:54:00,
2013-01-29 12:59:00,33.0,32.2,29.55,WSW,247,0.0,9.0,97,0.00,,---,0.00,VWS V14.00,2013-01-29 18:59:00,
2013-01-29 13:04:00,32.9,32.1,29.55,West,279,2.0,2.0,97,0.00,,---,0.00,VWS V14.00,2013-01-29 19:04:00,
2013-01-29 13:09:00,32.9,32.1,29.55,West,261,2.0,6.0,97,0.00,,---,0.00,VWS V14.00,2013-01-29 19:09:00,
2013-01-29 13:14:00,32.8,32.0,29.55,WSW,252,4.0,9.0,97,0.00,,---,0.00,VWS V14.00,2013-01-29 19:14:00,
2013-01-29 13:19:00,32.7,31.7,29.55,West,261,0.0,0.0,96,0.00,,---,0.00,VWS V14.00,2013-01-29 19:19:00,
2013-01-29 13:24:00,32.7,31.7,29.54,WNW,299,0.0,6.0,96,0.00,,---,0.00,VWS V14.00,2013-01-29 19:24:00,
2013-01-29 13:29:00,32.6,31.6,29.54,WSW,245,4.0,7.0,96,0.00,,---,0.00,VWS V14.00,2013-01-29 19:29:00,
2013-01-29 13:34:00,32.5,31.5,29.55,WSW,237,4.0,4.0,96,0.00,,---,0.00,VWS V14.00,2013-01-29 19:34:00,
2013-01-29 13:39:00,32.3,31.3,29.55,West,273,3.0,12.0,96,0.00,,---,0.00,VWS V14.00,2013-01-29 19:39:00,
2013-01-29 13:44:00,32.3,31.3,29.56,SW,228,11.0,12.0,96,0.00,,---,0.00,VWS V14.00,2013-01-29 19:44:00,
2013-01-29 13:49:00,32.1,31.1,29.56,SW,233,5.0,7.0,96,0.00,,---,0.00,VWS V14.00,2013-01-29 19:49:00,
2013-01-29 13:54:00,32.1,31.1,29.57,WSW,240,4.0,7.0,96,0.00,,---,0.00,VWS V14.00,2013-01-29 19:54:00,
2013-01-29 13:58:00,31.9,30.6,29.56,WSW,240,3.0,11.0,95,0.00,,---,0.00,VWS V14.00,2013-01-29 19:58:00,
2013-01-29 14:03:00,31.9,30.9,29.56,WNW,287,4.0,4.0,96,0.00,,---,0.00,VWS V14.00,2013-01-29 20:03:00,
2013-01-29 14:08:00,31.8,30.8,29.57,West,272,2.0,9.0,96,0.00,,---,0.00,VWS V14.00,2013-01-29 20:08:00,
2013-01-29 14:13:00,31.8,30.5,29.56,West,265,4.0,9.0,95,0.00,,---,0.00,VWS V14.00,2013-01-29 20:13:00,
2013-01-29 14:18:00,31.7,30.4,29.57,WSW,238,1.0,1.0,95,0.00,,---,0.00,VWS V14.00,2013-01-29 20:18:00,
2013-01-29 14:23:00,31.7,30.4,29.56,WSW,252,3.0,5.0,95,0.00,,---,0.00,VWS V14.00,2013-01-29 20:23:00,
2013-01-29 14:28:00,31.7,30.4,29.56,WNW,298,2.0,6.0,95,0.00,,---,0.00,VWS V14.00,2013-01-29 20:28:00,
2013-01-29 14:33:00,31.7,30.4,29.56,SSW,203,1.0,3.0,95,0.00,,---,0.00,VWS V14.00,2013-01-29 20:33:00,
2013-01-29 14:38:00,31.6,30.3,29.56,West,273,1.0,7.0,95,0.00,,---,0.00,VWS V14.00,2013-01-29 20:38:00,
2013-01-29 14:43:00,31.6,30.3,29.56,West,271,1.0,7.0,95,0.00,,---,0.00,VWS V14.00,2013-01-29 20:43:00,
2013-01-29 14:48:00,31.6,30.3,29.56,WNW,300,1.0,1.0,95,0.00,,---,0.00,VWS V14.00,2013-01-29 20:48:00,
2013-01-29 14:53:00,31.6,30.3,29.56,WNW,300,0.0,1.0,95,0.00,,---,0.00,VWS V14.00,2013-01-29 20:53:00,
2013-01-29 14:58:00,31.7,30.4,29.56,WSW,243,0.0,3.0,95,0.00,,---,0.00,VWS V14.00,2013-01-29 20:58:00,
2013-01-29 15:03:00,31.7,30.4,29.57,SSW,202,0.0,0.0,95,0.00,,---,0.00,VWS V14.00,2013-01-29 21:03:00,
2013-01-29 15:08:00,31.7,30.4,29.58,WNW,294,2.0,4.0,95,0.00,,---,0.00,VWS V14.00,2013-01-29 21:08:00,
2013-01-29 15:13:00,31.7,30.4,29.58,West,265,0.0,4.0,95,0.00,,---,0.00,VWS V14.00,2013-01-29 21:13:00,
2013-01-29 15:18:00,31.7,30.4,29.57,NW,315,0.0,0.0,95,0.00,,---,0.00,VWS V14.00,2013-01-29 21:18:00,
2013-01-29 15:23:00,31.7,30.4,29.57,West,259,0.0,4.0,95,0.00,,---,0.00,VWS V14.00,2013-01-29 21:23:00,
2013-01-29 15:28:00,31.7,30.4,29.58,NNW,328,2.0,4.0,95,0.00,,---,0.00,VWS V14.00,2013-01-29 21:28:00,
2013-01-29 15:33:00,31.7,30.4,29.58,WNW,297,0.0,0.0,95,0.00,,---,0.00,VWS V14.00,2013-01-29 21:33:00,
2013-01-29 15:38:00,31.6,30.3,29.57,NNW,346,0.0,4.0,95,0.00,,---,0.00,VWS V14.00,2013-01-29 21:38:00,
2013-01-29 15:43:00,31.6,30.3,29.58,SW,232,0.0,5.0,95,0.00,,---,0.00,VWS V14.00,2013-01-29 21:43:00,
2013-01-29 15:48:00,31.6,30.3,29.58,West,260,1.0,1.0,95,0.00,,---,0.00,VWS V14.00,2013-01-29 21:48:00,
2013-01-29 15:53:00,31.5,30.2,29.58,WNW,303,0.0,5.0,95,0.00,,---,0.00,VWS V14.00,2013-01-29 21:53:00,
2013-01-29 15:58:00,31.5,30.2,29.58,NW,313,1.0,5.0,95,0.00,,---,0.00,VWS V14.00,2013-01-29 21:58:00,
2013-01-29 16:03:00,31.4,29.9,29.58,SSW,203,3.0,3.0,94,0.00,,---,0.00,VWS V14.00,2013-01-29 22:03:00,
2013-01-29 16:08:00,31.4,30.1,29.58,SSW,211,2.0,4.0,95,0.00,,---,0.00,VWS V14.00,2013-01-29 22:08:00,
2013-01-29 16:13:00,31.3,29.8,29.58,NW,315,0.0,15.0,94,0.00,,---,0.00,VWS V14.00,2013-01-29 22:13:00,
2013-01-29 16:18:00,31.3,30.0,29.58,West,277,1.0,2.0,95,0.00,,---,0.00,VWS V14.00,2013-01-29 22:18:00,
2013-01-29 16:23:00,31.2,29.7,29.58,North,350,0.0,10.0,94,0.00,,---,0.00,VWS V14.00,2013-01-29 22:23:00,
2013-01-29 16:28:00,31.2,29.7,29.59,ENE,73,1.0,10.0,94,0.00,,---,0.00,VWS V14.00,2013-01-29 22:28:00,
2013-01-29 16:33:00,31.1,29.6,29.59,WNW,284,1.0,1.0,94,0.00,,---,0.00,VWS V14.00,2013-01-29 22:33:00,
2013-01-29 16:38:00,31.1,29.6,29.58,NW,313,0.0,7.0,94,0.00,,---,0.00,VWS V14.00,2013-01-29 22:38:00,
2013-01-29 16:43:00,31.1,29.6,29.59,NW,313,2.0,7.0,94,0.00,,---,0.00,VWS V14.00,2013-01-29 22:43:00,
2013-01-29 16:48:00,31.0,29.5,29.58,WNW,293,2.0,13.0,94,0.00,,---,0.00,VWS V14.00,2013-01-29 22:48:00,
2013-01-29 16:53:00,31.0,29.5,29.58,West,273,4.0,5.0,94,0.00,,---,0.00,VWS V14.00,2013-01-29 22:53:00,
2013-01-29 16:58:00,30.9,29.1,29.58,WSW,244,2.0,5.0,93,0.00,,---,0.00,VWS V14.00,2013-01-29 22:58:00,
2013-01-29 17:03:00,30.8,29.0,29.58,North,5,0.0,5.0,93,0.00,,---,0.00,VWS V14.00,2013-01-29 23:03:00,
2013-01-29 17:08:00,30.8,29.0,29.59,NW,319,3.0,4.0,93,0.00,,---,0.00,VWS V14.00,2013-01-29 23:08:00,
2013-01-29 17:13:00,30.7,28.9,29.59,SE,128,0.0,6.0,93,0.00,,---,0.00,VWS V14.00,2013-01-29 23:13:00,
2013-01-29 17:18:00,30.7,28.9,29.58,SE,133,3.0,5.0,93,0.00,,---,0.00,VWS V14.00,2013-01-29 23:18:00,
2013-01-29 17:23:00,30.7,28.9,29.60,North,5,4.0,6.0,93,0.00,,---,0.00,VWS V14.00,2013-01-29 23:23:00,
2013-01-29 17:28:00,30.6,28.8,29.60,SSW,209,0.0,6.0,93,0.00,,---,0.00,VWS V14.00,2013-01-29 23:28:00,
2013-01-29 17:33:00,30.6,28.8,29.60,NE,43,2.0,6.0,93,0.00,,---,0.00,VWS V14.00,2013-01-29 23:33:00,
2013-01-29 17:38:00,30.6,28.8,29.60,NW,309,1.0,7.0,93,0.00,,---,0.00,VWS V14.00,2013-01-29 23:38:00,
2013-01-29 17:43:00,30.6,28.8,29.60,West,263,3.0,7.0,93,0.00,,---,0.00,VWS V14.00,2013-01-29 23:43:00,
2013-01-29 17:48:00,30.6,28.8,29.59,NW,306,0.0,7.0,93,0.00,,---,0.00,VWS V14.00,2013-01-29 23:48:00,
2013-01-29 17:53:00,30.5,28.7,29.59,NNW,338,0.0,2.0,93,0.00,,---,0.00,VWS V14.00,2013-01-29 23:53:00,
2013-01-29 17:58:00,30.5,28.7,29.60,WNW,296,0.0,3.0,93,0.00,,---,0.00,VWS V14.00,2013-01-29 23:58:00,
2013-01-29 18:03:00,30.5,28.5,29.60,North,5,0.0,6.0,92,0.00,,---,0.00,VWS V14.00,2013-01-30 00:03:00,
2013-01-29 18:08:00,30.5,28.5,29.60,North,355,0.0,9.0,92,0.00,,---,0.00,VWS V14.00,2013-01-30 00:08:00,
2013-01-29 18:13:00,30.4,28.4,29.60,NNW,327,0.0,9.0,92,0.00,,---,0.00,VWS V14.00,2013-01-30 00:13:00,
2013-01-29 18:18:00,30.4,28.4,29.59,NNW,327,0.0,9.0,92,0.00,,---,0.00,VWS V14.00,2013-01-30 00:18:00,
2013-01-29 18:23:00,30.4,28.4,29.60,NE,55,0.0,4.0,92,0.00,,---,0.00,VWS V14.00,2013-01-30 00:23:00,
2013-01-29 18:28:00,30.3,28.3,29.60,WSW,255,3.0,5.0,92,0.00,,---,0.00,VWS V14.00,2013-01-30 00:28:00,
2013-01-29 18:33:00,30.3,28.5,29.60,NW,325,1.0,5.0,93,0.00,,---,0.00,VWS V14.00,2013-01-30 00:33:00,
2013-01-29 18:38:00,30.3,28.5,29.61,NW,311,0.0,3.0,93,0.00,,---,0.00,VWS V14.00,2013-01-30 00:38:00,
2013-01-29 18:43:00,30.3,28.5,29.62,NW,317,3.0,4.0,93,0.00,,---,0.00,VWS V14.00,2013-01-30 00:43:00,
2013-01-29 18:48:00,30.3,28.3,29.62,WNW,284,2.0,5.0,92,0.00,,---,0.00,VWS V14.00,2013-01-30 00:48:00,
2013-01-29 18:53:00,30.3,28.3,29.62,NW,319,2.0,4.0,92,0.00,,---,0.00,VWS V14.00,2013-01-30 00:53:00,
2013-01-29 18:58:00,30.3,28.3,29.63,WNW,292,1.0,4.0,92,0.00,,---,0.00,VWS V14.00,2013-01-30 00:58:00,
2013-01-29 19:03:00,30.4,28.4,29.63,NNW,340,0.0,4.0,92,0.00,,---,0.00,VWS V14.00,2013-01-30 01:03:00,
2013-01-29 19:08:00,30.4,28.6,29.62,NNW,339,0.0,3.0,93,0.00,,---,0.00,VWS V14.00,2013-01-30 01:08:00,
2013-01-29 19:13:00,30.4,28.6,29.63,NNW,341,0.0,5.0,93,0.00,,---,0.00,VWS V14.00,2013-01-30 01:13:00,
2013-01-29 19:18:00,30.4,28.6,29.63,NNW,333,0.0,5.0,93,0.00,,---,0.00,VWS V14.00,2013-01-30 01:18:00,
2013-01-29 19:23:00,30.4,28.6,29.64,WSW,250,3.0,3.0,93,0.00,,---,0.00,VWS V14.00,2013-01-30 01:23:00,
2013-01-29 19:28:00,30.4,28.4,29.64,NNW,327,2.0,5.0,92,0.00,,---,0.00,VWS V14.00,2013-01-30 01:28:00,
2013-01-29 19:33:00,30.4,28.4,29.64,NW,319,0.0,5.0,92,0.00,,---,0.00,VWS V14.00,2013-01-30 01:33:00,
2013-01-29 19:38:00,30.4,28.4,29.64,WNW,287,0.0,3.0,92,0.00,,---,0.00,VWS V14.00,2013-01-30 01:38:00,
2013-01-29 19:43:00,30.4,28.4,29.63,NW,318,1.0,4.0,92,0.00,,---,0.00,VWS V14.00,2013-01-30 01:43:00,
2013-01-29 19:48:00,30.4,28.4,29.61,NW,320,0.0,4.0,92,0.00,,---,0.00,VWS V14.00,2013-01-30 01:48:00,
2013-01-29 19:53:00,30.3,28.3,29.60,NE,44,7.0,7.0,92,0.00,,---,0.00,VWS V14.00,2013-01-30 01:53:00,
2013-01-29 19:58:00,30.3,28.3,29.60,ENE,65,1.0,7.0,92,0.00,,---,0.00,VWS V14.00,2013-01-30 01:58:00,
2013-01-29 20:03:00,30.2,28.4,29.60,WNW,297,0.0,7.0,93,0.00,,---,0.00,VWS V14.00,2013-01-30 02:03:00,
2013-01-29 20:08:00,30.2,28.4,29.61,NNW,344,0.0,3.0,93,0.00,,---,0.00,VWS V14.00,2013-01-30 02:08:00,
2013-01-29 20:13:00,30.2,28.4,29.59,ENE,57,3.0,3.0,93,0.00,,---,0.00,VWS V14.00,2013-01-30 02:13:00,
2013-01-29 20:18:00,30.2,28.4,29.60,ENE,65,0.0,4.0,93,0.00,,---,0.00,VWS V14.00,2013-01-30 02:18:00,
2013-01-29 20:23:00,30.1,28.3,29.62,NW,313,0.0,5.0,93,0.00,,---,0.00,VWS V14.00,2013-01-30 02:23:00,
2013-01-29 20:28:00,30.1,28.3,29.61,NW,321,0.0,5.0,93,0.00,,---,0.00,VWS V14.00,2013-01-30 02:28:00,
2013-01-29 20:33:00,30.1,28.3,29.61,NW,315,0.0,5.0,93,0.00,,---,0.00,VWS V14.00,2013-01-30 02:33:00,
2013-01-29 20:38:00,30.0,28.2,29.62,NW,325,0.0,3.0,93,0.00,,---,0.00,VWS V14.00,2013-01-30 02:38:00,
2013-01-29 20:43:00,30.0,28.2,29.61,West,271,0.0,4.0,93,0.00,,---,0.00,VWS V14.00,2013-01-30 02:43:00,
2013-01-29 20:48:00,29.9,28.1,29.61,SE,144,3.0,4.0,93,0.00,,---,0.00,VWS V14.00,2013-01-30 02:48:00,
2013-01-29 20:53:00,29.9,28.1,29.61,SW,227,3.0,7.0,93,0.00,,---,0.00,VWS V14.00,2013-01-30 02:53:00,
2013-01-29 20:58:00,29.8,28.0,29.63,WSW,252,0.0,7.0,93,0.00,,---,0.00,VWS V14.00,2013-01-30 02:58:00,
2013-01-29 21:03:00,29.8,28.0,29.64,WSW,239,0.0,7.0,93,0.00,,---,0.00,VWS V14.00,2013-01-30 03:03:00,
2013-01-29 21:08:00,29.8,28.0,29.65,NW,310,2.0,5.0,93,0.00,,---,0.00,VWS V14.00,2013-01-30 03:08:00,
2013-01-29 21:13:00,29.7,27.9,29.64,WNW,294,0.0,5.0,93,0.00,,---,0.00,VWS V14.00,2013-01-30 03:13:00,
2013-01-29 21:18:00,29.7,27.9,29.64,WSW,246,0.0,5.0,93,0.00,,---,0.00,VWS V14.00,2013-01-30 03:18:00,
2013-01-29 21:23:00,29.6,27.8,29.64,WNW,298,0.0,2.0,93,0.00,,---,0.00,VWS V14.00,2013-01-30 03:23:00,
2013-01-29 21:28:00,29.5,27.7,29.64,NW,311,2.0,3.0,93,0.00,,---,0.00,VWS V14.00,2013-01-30 03:28:00,
2013-01-29 21:33:00,29.4,27.6,29.65,WSW,251,2.0,6.0,93,0.00,,---,0.00,VWS V14.00,2013-01-30 03:33:00,
2013-01-29 21:38:00,29.3,27.5,29.63,South,182,4.0,6.0,93,0.00,,---,0.00,VWS V14.00,2013-01-30 03:38:00,
2013-01-29 21:43:00,29.1,27.3,29.63,NW,311,0.0,6.0,93,0.00,,---,0.00,VWS V14.00,2013-01-30 03:43:00,
2013-01-29 21:48:00,29.0,27.5,29.62,SSW,207,2.0,6.0,94,0.00,,---,0.00,VWS V14.00,2013-01-30 03:48:00,
2013-01-29 21:53:00,28.8,27.0,29.61,East,80,1.0,5.0,93,0.00,,---,0.00,VWS V14.00,2013-01-30 03:53:00,
2013-01-29 21:58:00,28.7,26.9,29.59,NNW,328,0.0,8.0,93,0.00,,---,0.00,VWS V14.00,2013-01-30 03:58:00,
2013-01-29 22:03:00,28.5,27.0,29.59,SSW,207,2.0,8.0,94,0.00,,---,0.00,VWS V14.00,2013-01-30 04:03:00,
2013-01-29 22:08:00,28.3,26.8,29.59,SSW,205,0.0,4.0,94,0.00,,---,0.00,VWS V14.00,2013-01-30 04:08:00,
2013-01-29 22:13:00,28.2,26.7,29.59,NW,323,0.0,4.0,94,0.00,,---,0.00,VWS V14.00,2013-01-30 04:13:00,
2013-01-29 22:18:00,28.1,26.6,29.60,SW,230,0.0,5.0,94,0.00,,---,0.00,VWS V14.00,2013-01-30 04:18:00,
2013-01-29 22:23:00,28.0,26.5,29.61,NW,323,2.0,4.0,94,0.00,,---,0.00,VWS V14.00,2013-01-30 04:23:00,
2013-01-29 22:28:00,27.9,26.4,29.62,WSW,248,0.0,7.0,94,0.00,,---,0.00,VWS V14.00,2013-01-30 04:28:00,
2013-01-29 22:33:00,27.9,26.4,29.63,WSW,252,0.0,7.0,94,0.00,,---,0.00,VWS V14.00,2013-01-30 04:33:00,
2013-01-29 22:38:00,27.9,26.4,29.64,WNW,290,1.0,3.0,94,0.00,,---,0.00,VWS V14.00,2013-01-30 04:38:00,
2013-01-29 22:43:00,27.8,26.3,29.64,NW,323,3.0,4.0,94,0.00,,---,0.00,VWS V14.00,2013-01-30 04:43:00,
2013-01-29 22:48:00,27.8,26.6,29.64,WSW,248,1.0,5.0,95,0.00,,---,0.00,VWS V14.00,2013-01-30 04:48:00,
2013-01-29 22:53:00,27.7,26.5,29.64,WSW,255,2.0,4.0,95,0.00,,---,0.00,VWS V14.00,2013-01-30 04:53:00,
2013-01-29 22:58:00,27.7,26.2,29.64,SSW,208,0.0,4.0,94,0.00,,---,0.00,VWS V14.00,2013-01-30 04:58:00,
2013-01-29 23:03:00,27.6,26.4,29.65,NW,311,0.0,4.0,95,0.00,,---,0.00,VWS V14.00,2013-01-30 05:03:00,
2013-01-29 23:08:00,27.5,26.0,29.64,WSW,247,0.0,4.0,94,0.00,,---,0.00,VWS V14.00,2013-01-30 05:08:00,
2013-01-29 23:13:00,27.5,26.0,29.64,WNW,302,1.0,11.0,94,0.00,,---,0.00,VWS V14.00,2013-01-30 05:13:00,
2013-01-29 23:18:00,27.3,25.8,29.64,WNW,300,2.0,11.0,94,0.00,,---,0.00,VWS V14.00,2013-01-30 05:18:00,
2013-01-29 23:23:00,27.2,25.7,29.64,North,360,0.0,3.0,94,0.00,,---,0.00,VWS V14.00,2013-01-30 05:23:00,
2013-01-29 23:28:00,27.1,25.6,29.65,SW,232,1.0,6.0,94,0.00,,---,0.00,VWS V14.00,2013-01-30 05:28:00,
2013-01-29 23:33:00,27.0,25.5,29.65,WSW,255,1.0,6.0,94,0.00,,---,0.00,VWS V14.00,2013-01-30 05:33:00,
2013-01-29 23:38:00,27.0,25.5,29.65,NNW,329,0.0,2.0,94,0.00,,---,0.00,VWS V14.00,2013-01-30 05:38:00,
2013-01-29 23:43:00,26.9,25.4,29.65,SW,234,1.0,5.0,94,0.00,,---,0.00,VWS V14.00,2013-01-30 05:43:00,
2013-01-29 23:48:00,26.8,25.3,29.64,South,179,2.0,5.0,94,0.00,,---,0.00,VWS V14.00,2013-01-30 05:48:00,
2013-01-29 23:53:00,26.7,25.2,29.63,WNW,291,0.0,6.0,94,0.00,,---,0.00,VWS V14.00,2013-01-30 05:53:00,
2013-01-29 23:58:00,26.7,25.2,29.63,WNW,285,0.0,7.0,94,0.00,,---,0.00,VWS V14.00,2013-01-30 05:58:00,